This is the latest recevied weather packets stored in our database for station/object K9RCP-24. If no packets are shown the sender has not sent any weather packets the latest 10 day(s).
| Time | Temp. | Humidity | Pressure | Rain* | Wind** | Luminosity | Snow |
|---|---|---|---|---|---|---|---|
| 1777856579 | 32.78° C | 23% | 1010.2 hPa | 0 mm | - | - | - |
| 1777855888 | 33.33° C | 23% | 1010.2 hPa | 0 mm | - | - | - |
| 1777854260 | 32.78° C | 24% | 1010.2 hPa | 0 mm | - | - | - |
| 1777854137 | 32.78° C | 24% | 1010.5 hPa | 0 mm | - | - | - |
| 1777853510 | 32.78° C | 24% | 1010.2 hPa | 0 mm | - | - | - |
| 1777853262 | 32.78° C | 24% | 1010.2 hPa | 0 mm | - | - | - |
| 1777853136 | 32.78° C | 24% | 1010.2 hPa | 0 mm | - | - | - |
| 1777852888 | 33.33° C | 24% | 1010.2 hPa | 0 mm | - | - | - |
| 1777852514 | 32.78° C | 25% | 1010.2 hPa | 0 mm | - | - | - |
| 1777851300 | 32.78° C | 24% | 1010.5 hPa | 0 mm | - | - | - |
| 1777850897 | 32.78° C | 24% | 1010.5 hPa | 0 mm | - | - | - |
| 1777850614 | 32.78° C | 24% | 1010.8 hPa | 0 mm | - | - | - |
| 1777849332 | 32.78° C | 27% | 1010.8 hPa | 0 mm | - | - | - |
| 1777844830 | 31.67° C | 28% | 1011.9 hPa | 0 mm | - | - | - |
| 1777844333 | 31.67° C | 30% | 1012.2 hPa | 0 mm | - | - | - |
| 1777843709 | 31.11° C | 31% | 1012.2 hPa | 0 mm | - | - | - |
| 1777843585 | 31.11° C | 30% | 1012.2 hPa | 0 mm | - | - | - |
| 1777843213 | 31.11° C | 31% | 1012.2 hPa | 0 mm | - | - | - |
| 1777841554 | 31.11° C | 30% | 1012.5 hPa | 0 mm | - | - | - |
| 1777841428 | 31.11° C | 32% | 1012.5 hPa | 0 mm | - | - | - |
| 1777841057 | 30° C | 31% | 1012.5 hPa | 0 mm | - | - | - |
| 1777840807 | 30° C | 30% | 1012.5 hPa | 0 mm | - | - | - |
| 1777839356 | 30.56° C | 32% | 1012.9 hPa | 0 mm | - | - | - |
| 1777838952 | 30° C | 33% | 1012.9 hPa | 0 mm | - | - | - |
| 1777838580 | 29.44° C | 33% | 1012.9 hPa | 0 mm | - | - | - |
* Rain latest hour (hover to see other rain measurements)
** Current wind speed in m/s (hover to see current wind gust speed)